Location: Newark
(37.3394°N, 6.0261°W)
Time: 06:21:43
(UTC+00:00)

Envisat - Pass Details

Date: 28 March 2019
Orbit: 764 x 766 km, 98.1° (Epoch: 13 October)

Event Time Altitude Azimuth Distance (km) Brightness Sun altitude
Rises 19:52:09 0° 194° (SSW) 3,214 6.2 -14.4°
Reaches altitude 10° 19:54:45 10° 206° (SSW) 2,293 5.6 -14.9°
Maximum altitude 19:59:02 28° 264° (W) 1,415 5.1 -15.7°
Drops below altitude 10° 20:03:22 10° 323° (NW) 2,307 6.3 -16.5°
Sets 20:06:00 0° 335° (NNW) 3,238 6.9 -17.0°
